Tracking 19638 objects as of 18-Apr-2019
HD Live streaming from Space Station
objects crossing your sky now

CZ-4 DEB

Track CZ-4 DEB now!
10-day predictions


NORAD ID: 35319
Int'l Code: 1999-057RX
Perigee: 726.0 km
Apogee: 1,019.5 km
Inclination: 98.6 °
Period: 102.3 minutes
Semi major axis: 7243 km
RCS: 0.0013 m2 (small)
Launch date: October 14, 1999
Source: People's Republic of China (PRC)
Launch site: Taiyaun Space Center, China (TSC)

Note: This is SATELLITE DEBRIS
aabbcc
Your satellite tracking list
Your tracking list is empty




NASA's NSSDC Master Catalog

Two Line Element Set (TLE):
1 35319U 99057RX  19107.86024785 +.00000229 +00000-0 +13161-3 0  9997
2 35319 098.5784 246.9793 0202534 214.4785 301.0879 14.08181111896198
Source of the keplerian elements: AFSPC